• In Hungary
  • List of Countries
  • For 7 days
  • Water Temperature
  • Satellite Maps
  • Weather Map
  • News
  • Weather Widgets
  • user-avatar
    Login

    Hourly Weather Kavadarci

    Today, 19 June, Tuesday

    Time Temperature Precipitation Wind Pressure Humidity
    00:00 +19°C° 0.2 mm 2 mps 739 mmHg 85%
    01:00 +19°C° 0.2 mm 2 mps 739 mmHg 87%
    02:00 +18°C° 0.1 mm 2 mps 739 mmHg 88%
    03:00 +18°C° 0.1 mm 2 mps 739 mmHg 89%
    04:00 +18°C° 0.1 mm 2 mps 739 mmHg 90%
    05:00 +20°C° 0 mm 2 mps 740 mmHg 84%
    06:00 +21°C° 0 mm 2 mps 740 mmHg 78%
    07:00 +24°C° 0 mm 3 mps 740 mmHg 72%
    08:00 +25°C° 0.2 mm 3 mps 740 mmHg 65%
    09:00 +27°C° 0.2 mm 3 mps 740 mmHg 59%
    10:00 +28°C° 0.2 mm 3 mps 740 mmHg 53%
    11:00 +29°C° 0.5 mm 3 mps 740 mmHg 50%
    12:00 +30°C° 0.5 mm 3 mps 740 mmHg 48%
    13:00 +31°C° 0.5 mm 3 mps 740 mmHg 45%
    14:00 +30°C° 0.6 mm 2 mps 740 mmHg 47%
    15:00 +30°C° 0.6 mm 2 mps 740 mmHg 48%
    16:00 +30°C° 0.6 mm 2 mps 740 mmHg 49%
    17:00 +28°C° 0.8 mm 2 mps 740 mmHg 55%
    18:00 +26°C° 0.8 mm 2 mps 740 mmHg 61%
    19:00 +25°C° 0.8 mm 2 mps 740 mmHg 67%
    20:00 +24°C° 0.9 mm 1 mps 741 mmHg 71%
    21:00 +22°C° 0.9 mm 1 mps 741 mmHg 76%
    22:00 +21°C° 0.9 mm 1 mps 742 mmHg 81%
    23:00 +21°C° 0.2 mm 1 mps 742 mmHg 81%

    Tomorrow, 20 June, Wednesday

    Time Temperature Precipitation Wind Pressure Humidity
    00:00 +20°C° 0.2 mm 1 mps 742 mmHg 82%
    01:00 +20°C° 0.2 mm 1 mps 742 mmHg 83%
    02:00 +19°C° 0 mm 1 mps 742 mmHg 83%
    03:00 +19°C° 0 mm 1 mps 742 mmHg 83%
    04:00 +19°C° 0 mm 1 mps 742 mmHg 84%
    05:00 +20°C° 0 mm 2 mps 742 mmHg 78%
    06:00 +23°C° 0 mm 2 mps 742 mmHg 71%
    07:00 +25°C° 0 mm 2 mps 742 mmHg 65%
    08:00 +26°C° 0.1 mm 2 mps 743 mmHg 57%
    09:00 +28°C° 0.1 mm 2 mps 743 mmHg 49%
    10:00 +30°C° 0.1 mm 2 mps 743 mmHg 42%
    11:00 +30°C° 0 mm 2 mps 742 mmHg 39%
    12:00 +31°C° 0 mm 1 mps 742 mmHg 37%
    13:00 +32°C° 0 mm 1 mps 742 mmHg 35%
    14:00 +32°C° 0 mm 1 mps 742 mmHg 36%
    15:00 +31°C° 0 mm 1 mps 742 mmHg 37%
    16:00 +31°C° 0 mm 1 mps 741 mmHg 38%
    17:00 +29°C° 0 mm 1 mps 741 mmHg 42%
    18:00 +28°C° 0 mm 1 mps 742 mmHg 46%
    19:00 +26°C° 0 mm 1 mps 742 mmHg 50%
    20:00 +25°C° 0 mm 1 mps 742 mmHg 53%
    21:00 +24°C° 0 mm 1 mps 742 mmHg 57%
    22:00 +23°C° 0 mm 1 mps 743 mmHg 60%
    23:00 +22°C° 0 mm 1 mps 742 mmHg 62%

    Day after tomorrow, 21 June, Thursday

    Time Temperature Precipitation Wind Pressure Humidity
    00:00 +22°C° 0 mm 1 mps 742 mmHg 65%
    01:00 +21°C° 0 mm 1 mps 742 mmHg 67%
    02:00 +20°C° 0 mm 1 mps 742 mmHg 68%
    03:00 +20°C° 0 mm 1 mps 742 mmHg 70%
    04:00 +20°C° 0 mm 1 mps 742 mmHg 71%
    05:00 +22°C° 0 mm 1 mps 742 mmHg 65%
    06:00 +24°C° 0 mm 1 mps 742 mmHg 59%
    07:00 +26°C° 0 mm 1 mps 742 mmHg 53%
    08:00 +27°C° 0 mm 1 mps 741 mmHg 48%
    09:00 +29°C° 0 mm 1 mps 741 mmHg 44%
    10:00 +31°C° 0 mm 1 mps 741 mmHg 40%
    11:00 +32°C° 0 mm 1 mps 741 mmHg 38%
    12:00 +32°C° 0 mm 1 mps 740 mmHg 36%
    13:00 +33°C° 0 mm 1 mps 740 mmHg 34%
    14:00 +33°C° 0 mm 1 mps 740 mmHg 35%
    15:00 +32°C° 0 mm 1 mps 739 mmHg 36%
    16:00 +32°C° 0 mm 1 mps 739 mmHg 36%
    17:00 +30°C° 0 mm 1 mps 739 mmHg 41%
    18:00 +28°C° 0 mm 1 mps 739 mmHg 46%
    19:00 +27°C° 0 mm 2 mps 739 mmHg 51%
    20:00 +25°C° 0 mm 2 mps 739 mmHg 55%
    21:00 +24°C° 0 mm 2 mps 739 mmHg 59%
    22:00 +23°C° 0 mm 2 mps 739 mmHg 63%
    23:00 +22°C° 0 mm 1 mps 739 mmHg 66%

    22 June, Friday

    Time Temperature Precipitation Wind Pressure Humidity
    00:00 +22°C° 0 mm 1 mps 739 mmHg 69%
    01:00 +21°C° 0 mm 1 mps 739 mmHg 72%
    02:00 +21°C° 0 mm 1 mps 738 mmHg 74%
    03:00 +20°C° 0 mm 1 mps 738 mmHg 75%
    04:00 +20°C° 0 mm 1 mps 738 mmHg 77%
    05:00 +22°C° 0 mm 1 mps 738 mmHg 70%
    06:00 +24°C° 0 mm 1 mps 738 mmHg 63%
    07:00 +26°C° 0 mm 1 mps 738 mmHg 56%
    08:00 +28°C° 0 mm 1 mps 738 mmHg 51%
    09:00 +30°C° 0 mm 1 mps 738 mmHg 46%
    10:00 +31°C° 0 mm 2 mps 738 mmHg 41%
    11:00 +32°C° 0.1 mm 2 mps 738 mmHg 39%
    12:00 +34°C° 0.1 mm 2 mps 737 mmHg 37%
    13:00 +34°C° 0.1 mm 2 mps 737 mmHg 35%
    14:00 +34°C° 0.1 mm 2 mps 737 mmHg 36%
    15:00 +34°C° 0.1 mm 3 mps 737 mmHg 38%
    16:00 +33°C° 0.1 mm 3 mps 737 mmHg 39%
    17:00 +30°C° 0.2 mm 3 mps 737 mmHg 47%
    18:00 +28°C° 0.2 mm 3 mps 737 mmHg 55%
    19:00 +26°C° 0.2 mm 3 mps 738 mmHg 63%
    20:00 +24°C° 0.3 mm 3 mps 738 mmHg 70%
    21:00 +21°C° 0.3 mm 3 mps 738 mmHg 78%
    22:00 +19°C° 0.3 mm 3 mps 738 mmHg 85%
    23:00 +18°C° 0.1 mm 3 mps 738 mmHg 86%

    23 June, Saturday

    Time Temperature Precipitation Wind Pressure Humidity
    00:00 +17°C° 0.1 mm 3 mps 738 mmHg 86%
    01:00 +16°C° 0.1 mm 3 mps 738 mmHg 86%
    02:00 +14°C° 0 mm 3 mps 738 mmHg 85%
    03:00 +14°C° 0 mm 3 mps 738 mmHg 83%
    04:00 +13°C° 0 mm 3 mps 739 mmHg 82%
    05:00 +16°C° 0 mm 3 mps 739 mmHg 76%
    06:00 +17°C° 0 mm 4 mps 739 mmHg 71%
    07:00 +18°C° 0 mm 4 mps 739 mmHg 65%
    08:00 +19°C° 0 mm 4 mps 739 mmHg 62%
    09:00 +20°C° 0 mm 4 mps 739 mmHg 58%
    10:00 +21°C° 0 mm 5 mps 739 mmHg 55%
    11:00 +21°C° 0.2 mm 5 mps 739 mmHg 57%
    12:00 +20°C° 0.2 mm 5 mps 739 mmHg 59%
    13:00 +20°C° 0.2 mm 5 mps 739 mmHg 61%
    14:00 +20°C° 0 mm 5 mps 739 mmHg 61%
    15:00 +19°C° 0 mm 4 mps 739 mmHg 60%
    16:00 +19°C° 0 mm 4 mps 739 mmHg 60%
    17:00 +18°C° 0 mm 4 mps 739 mmHg 62%
    18:00 +17°C° 0 mm 3 mps 740 mmHg 65%
    19:00 +16°C° 0 mm 3 mps 740 mmHg 68%
    20:00 +16°C° 0 mm 2 mps 740 mmHg 71%
    21:00 +15°C° 0 mm 2 mps 740 mmHg 73%
    22:00 +14°C° 0 mm 2 mps 741 mmHg 76%
    23:00 +14°C° 0 mm 2 mps 741 mmHg 77%

    24 June, Sunday

    Time Temperature Precipitation Wind Pressure Humidity
    00:00 +14°C° 0 mm 2 mps 741 mmHg 77%
    01:00 +14°C° 0 mm 2 mps 741 mmHg 78%
    02:00 +14°C° 0 mm 2 mps 741 mmHg 79%
    03:00 +13°C° 0 mm 2 mps 741 mmHg 80%
    04:00 +13°C° 0 mm 2 mps 741 mmHg 81%
    05:00 +15°C° 0 mm 2 mps 741 mmHg 75%
    06:00 +17°C° 0 mm 2 mps 741 mmHg 68%
    07:00 +18°C° 0 mm 2 mps 741 mmHg 61%
    08:00 +20°C° 0 mm 2 mps 741 mmHg 56%
    09:00 +23°C° 0 mm 2 mps 741 mmHg 51%
    10:00 +25°C° 0 mm 2 mps 741 mmHg 46%
    11:00 +26°C° 0 mm 2 mps 741 mmHg 44%
    12:00 +27°C° 0 mm 2 mps 741 mmHg 43%
    13:00 +28°C° 0 mm 1 mps 741 mmHg 41%
    14:00 +28°C° 0 mm 2 mps 741 mmHg 42%
    15:00 +28°C° 0 mm 2 mps 741 mmHg 42%
    16:00 +28°C° 0 mm 2 mps 740 mmHg 43%
    17:00 +26°C° 0 mm 2 mps 741 mmHg 49%
    18:00 +24°C° 0 mm 2 mps 741 mmHg 56%
    19:00 +21°C° 0 mm 2 mps 741 mmHg 63%
    20:00 +20°C° 0 mm 2 mps 741 mmHg 69%
    21:00 +19°C° 0 mm 2 mps 741 mmHg 76%
    22:00 +19°C° 0 mm 1 mps 742 mmHg 83%
    23:00 +19°C° 0.1 mm 1 mps 742 mmHg 84%
    Show more